,,,PA_Meas_PMT16A,,PR_Meas_QMR101_102,,RH_Meas_QMH101,,SR_Meas_QMS101,,TA_Meas_QMH101,,GenWind,,GenWind,
date,time,status,PA,status,PR,status,RH,status,SR,status,TA,status,DirAvg,status,SpdAvg,
2010-02-20, 00:00:04,VALID,1004.61,VALID,0,VALID,93.8505,VALID,0,VALID,24.7937,VALID,23,VALID,0.00195313,
2010-02-20, 00:01:04,VALID,1004.61,VALID,0,VALID,93.8123,VALID,0,VALID,24.7743,VALID,23,VALID,0,
2010-02-20, 00:02:04,VALID,1004.6,VALID,0,VALID,93.8352,VALID,0,VALID,24.7548,VALID,23,VALID,0,
2010-02-20, 00:03:04,VALID,1004.58,VALID,0,VALID,93.8886,VALID,0,VALID,24.7743,VALID,23,VALID,0.0179687,
2010-02-20, 00:04:04,VALID,1004.59,VALID,0,VALID,93.9344,VALID,0,VALID,24.7353,VALID,356,VALID,0.457422,
2010-02-20, 00:05:04,VALID,1004.58,VALID,0,VALID,93.9039,VALID,0,VALID,24.7548,VALID,356,VALID,0.373047,
2010-02-20, 00:06:04,VALID,1004.57,VALID,0,VALID,93.9191,VALID,0,VALID,24.7353,VALID,4,VALID,0.251953,
2010-02-20, 00:07:04,VALID,1004.57,VALID,0,VALID,93.9497,VALID,0,VALID,24.6945,VALID,4,VALID,0.362891,
2010-02-20, 00:08:04,VALID,1004.55,VALID,0,VALID,93.9725,VALID,0.100563,VALID,24.6945,VALID,5,VALID,0.311328,
2010-02-20, 00:09:04,VALID,1004.54,VALID,0,VALID,93.9649,VALID,0,VALID,24.6964,VALID,35,VALID,0.440625,
2010-02-20, 00:10:04,VALID,1004.53,VALID,0,VALID,94.0183,VALID,0,VALID,24.7353,VALID,35,VALID,0.170703,
2010-02-20, 00:11:04,VALID,1004.56,VALID,0,VALID,94.0412,VALID,0,VALID,24.7159,VALID,34,VALID,0.561719,
2010-02-20, 00:12:04,VALID,1004.58,VALID,0,VALID,94.0565,VALID,0,VALID,24.675,VALID,34,VALID,0.322266,
2010-02-20, 00:13:04,VALID,1004.54,VALID,0,VALID,94.0183,VALID,0,VALID,24.6769,VALID,34,VALID,0,
2010-02-20, 00:14:04,VALID,1004.55,VALID,0,VALID,94.0336,VALID,0,VALID,24.6556,VALID,34,VALID,0.00976563,
2010-02-20, 00:15:04,VALID,1004.56,VALID,0,VALID,94.0641,VALID,0,VALID,24.6769,VALID,34,VALID,0,
2010-02-20, 00:16:04,VALID,1004.56,VALID,0,VALID,94.0565,VALID,0,VALID,24.6556,VALID,34,VALID,0,
2010-02-20, 00:17:04,VALID,1004.55,VALID,0,VALID,94.087,VALID,0,VALID,24.6574,VALID,34,VALID,0,
2010-02-20, 00:18:04,VALID,1004.52,VALID,0,VALID,94.0717,VALID,0,VALID,24.6556,VALID,34,VALID,0,
2010-02-20, 00:19:04,VALID,1004.51,VALID,0,VALID,94.0946,VALID,0,VALID,24.6556,VALID,34,VALID,0,
2010-02-20, 00:20:04,VALID,1004.54,VALID,0,VALID,94.1328,VALID,0,VALID,24.6769,VALID,34,VALID,0.194531,
2010-02-20, 00:21:04,VALID,1004.45,VALID,0,VALID,94.1785,VALID,0,VALID,24.675,VALID,34,VALID,0.232422,
2010-02-20, 00:22:04,VALID,1004.49,VALID,0,VALID,94.1938,VALID,0.100563,VALID,24.675,VALID,34,VALID,0,
2010-02-20, 00:23:04,VALID,1004.49,VALID,0,VALID,94.2472,VALID,0,VALID,24.675,VALID,34,VALID,0,
2010-02-20, 00:24:04,VALID,1004.48,VALID,0,VALID,94.2396,VALID,0,VALID,24.6964,VALID,34,VALID,0.0992187,
2010-02-20, 00:25:04,VALID,1004.48,VALID,0,VALID,94.2319,VALID,0.100563,VALID,24.6945,VALID,34,VALID,0,
2010-02-20, 00:26:04,VALID,1004.46,VALID,0,VALID,94.2243,VALID,0,VALID,24.675,VALID,34,VALID,0,
2010-02-20, 00:27:04,VALID,1004.41,VALID,0,VALID,94.2243,VALID,0.100563,VALID,24.675,VALID,34,VALID,0,
2010-02-20, 00:28:04,VALID,1004.44,VALID,0,VALID,94.2396,VALID,0,VALID,24.714,VALID,34,VALID,0,
2010-02-20, 00:29:04,VALID,1004.41,VALID,0,VALID,94.2624,VALID,0,VALID,24.714,VALID,34,VALID,0,
2010-02-20, 00:30:04,VALID,1004.44,VALID,0,VALID,94.293,VALID,0,VALID,24.7529,VALID,34,VALID,0,
2010-02-20, 00:31:04,VALID,1004.43,VALID,0,VALID,94.3235,VALID,0,VALID,24.7724,VALID,34,VALID,0.1875,
2010-02-20, 00:32:04,VALID,1004.4,VALID,0,VALID,94.3158,VALID,0.100563,VALID,24.7919,VALID,34,VALID,0.157813,
2010-02-20, 00:33:04,VALID,1004.43,VALID,0,VALID,94.354,VALID,0,VALID,24.8113,VALID,34,VALID,0.382813,
2010-02-20, 00:34:04,VALID,1004.42,VALID,0,VALID,94.3464,VALID,0.100563,VALID,24.8308,VALID,19,VALID,0.726953,
2010-02-20, 00:35:04,VALID,1004.43,VALID,0,VALID,94.2853,VALID,0,VALID,24.7919,VALID,19,VALID,0.112891,
2010-02-20, 00:36:04,VALID,1004.43,VALID,0,VALID,94.2319,VALID,0,VALID,24.8327,VALID,19,VALID,0.40625,
2010-02-20, 00:37:04,VALID,1004.45,VALID,0,VALID,94.1862,VALID,0.100563,VALID,24.8113,VALID,19,VALID,0.240234,
2010-02-20, 00:38:04,VALID,1004.42,VALID,0,VALID,94.2014,VALID,0,VALID,24.8308,VALID,19,VALID,0.539844,
2010-02-20, 00:39:04,VALID,1004.42,VALID,0,VALID,94.1938,VALID,0,VALID,24.8308,VALID,19,VALID,0.391797,
2010-02-20, 00:40:04,VALID,1004.43,VALID,0,VALID,94.2014,VALID,0,VALID,24.8289,VALID,19,VALID,0.0976563,
2010-02-20, 00:41:04,VALID,1004.42,VALID,0,VALID,94.1938,VALID,0,VALID,24.8503,VALID,19,VALID,0.00585938,
2010-02-20, 00:42:04,VALID,1004.37,VALID,0,VALID,94.2014,VALID,0,VALID,24.8503,VALID,19,VALID,0,
2010-02-20, 00:43:04,VALID,1004.41,VALID,0,VALID,94.2243,VALID,0.100563,VALID,24.8503,VALID,19,VALID,0,
2010-02-20, 00:44:04,VALID,1004.39,VALID,0,VALID,94.2319,VALID,0,VALID,24.8716,VALID,19,VALID,0,
2010-02-20, 00:45:04,VALID,1004.38,VALID,0,VALID,94.2548,VALID,0,VALID,24.8911,VALID,19,VALID,0,
2010-02-20, 00:46:04,VALID,1004.35,VALID,0,VALID,94.2624,VALID,0,VALID,24.8911,VALID,19,VALID,0,
2010-02-20, 00:47:04,VALID,1004.36,VALID,0,VALID,94.2472,VALID,0,VALID,24.8697,VALID,19,VALID,0,
2010-02-20, 00:48:04,VALID,1004.34,VALID,0,VALID,94.2243,VALID,0,VALID,24.8911,VALID,19,VALID,0,
2010-02-20, 00:49:04,VALID,1004.34,VALID,0,VALID,94.2243,VALID,0,VALID,24.8911,VALID,19,VALID,0,
2010-02-20, 00:50:04,VALID,1004.33,VALID,0,VALID,94.2396,VALID,0,VALID,24.8892,VALID,19,VALID,0.138281,
2010-02-20, 00:51:04,VALID,1004.33,VALID,0,VALID,94.2396,VALID,0,VALID,24.9087,VALID,19,VALID,0,
2010-02-20, 00:52:04,VALID,1004.3,VALID,0,VALID,94.2243,VALID,0,VALID,24.93,VALID,19,VALID,0,
2010-02-20, 00:53:04,VALID,1004.28,VALID,0,VALID,94.2243,VALID,0,VALID,24.9282,VALID,19,VALID,0.240625,
2010-02-20, 00:54:04,VALID,1004.23,VALID,0,VALID,94.2243,VALID,0,VALID,24.969,VALID,39,VALID,0.368359,
2010-02-20, 00:55:04,VALID,1004.22,VALID,0,VALID,94.2319,VALID,0,VALID,24.9476,VALID,90,VALID,0.412109,
2010-02-20, 00:56:04,VALID,1004.17,VALID,0,VALID,94.1938,VALID,0,VALID,24.9866,VALID,90,VALID,0.00351562,
2010-02-20, 00:57:04,VALID,1004.12,VALID,0,VALID,94.148,VALID,0,VALID,25.0079,VALID,90,VALID,0,
2010-02-20, 00:58:04,VALID,1004.12,VALID,0,VALID,94.1099,VALID,0,VALID,25.006,VALID,90,VALID,0,
2010-02-20, 00:59:04,VALID,1004.08,VALID,0,VALID,94.087,VALID,0,VALID,25.0469,VALID,18,VALID,0.479688,
2010-02-20, 01:00:04,VALID,1004.05,VALID,0,VALID,94.0412,VALID,0,VALID,25.045,VALID,14,VALID,0.447266,
2010-02-20, 01:01:04,VALID,1004.03,VALID,0,VALID,93.9954,VALID,0,VALID,25.0469,VALID,14,VALID,0.469531,
2010-02-20, 01:02:04,VALID,1004.05,VALID,0,VALID,93.9344,VALID,0,VALID,25.0274,VALID,14,VALID,0.065625,
2010-02-20, 01:03:04,VALID,1004.03,VALID,0,VALID,93.881,VALID,0,VALID,25.0079,VALID,14,VALID,0,
2010-02-20, 01:04:04,VALID,1004.04,VALID,0,VALID,93.8429,VALID,0,VALID,25.0274,VALID,14,VALID,0.329297,
2010-02-20, 01:05:04,VALID,1004.05,VALID,0,VALID,93.82,VALID,0,VALID,25.0274,VALID,26,VALID,0.661719,
2010-02-20, 01:06:04,VALID,1004.02,VALID,0,VALID,93.7971,VALID,0.100563,VALID,25.1034,VALID,5,VALID,1.2957,
2010-02-20, 01:07:04,VALID,1004.05,VALID,0,VALID,93.4004,VALID,0,VALID,25.3195,VALID,21,VALID,1.22891,
2010-02-20, 01:08:04,VALID,1004.04,VALID,0,VALID,92.6375,VALID,0,VALID,25.4734,VALID,50,VALID,0.383984,
2010-02-20, 01:09:04,VALID,1004.01,VALID,0,VALID,91.8059,VALID,0,VALID,25.5551,VALID,50,VALID,0.228906,
2010-02-20, 01:10:04,VALID,1003.99,VALID,0,VALID,91.249,VALID,0,VALID,25.5532,VALID,50,VALID,0.445313,
2010-02-20, 01:11:04,VALID,1003.95,VALID,0,VALID,90.9439,VALID,0,VALID,25.5337,VALID,80,VALID,0.369922,
2010-02-20, 01:12:04,VALID,1003.97,VALID,0,VALID,90.8218,VALID,0,VALID,25.4928,VALID,37,VALID,0.376563,
2010-02-20, 01:13:04,VALID,1003.93,VALID,0,VALID,90.5624,VALID,0,VALID,25.5318,VALID,4,VALID,1.45039,
2010-02-20, 01:14:04,VALID,1003.94,VALID,0,VALID,89.769,VALID,0,VALID,25.6292,VALID,33,VALID,1.16172,
2010-02-20, 01:15:04,VALID,1003.93,VALID,0,VALID,89.0748,VALID,0,VALID,25.7869,VALID,11,VALID,1.39648,
2010-02-20, 01:16:04,VALID,1003.96,VALID,0,VALID,88.4721,VALID,0,VALID,25.8648,VALID,16,VALID,0.660156,
2010-02-20, 01:17:04,VALID,1003.95,VALID,0,VALID,88.1517,VALID,0,VALID,25.9447,VALID,25,VALID,0.773047,
2010-02-20, 01:18:04,VALID,1003.95,VALID,0,VALID,87.9381,VALID,0,VALID,25.9427,VALID,354,VALID,0.394531,
2010-02-20, 01:19:04,VALID,1003.95,VALID,0,VALID,87.7703,VALID,0,VALID,25.9213,VALID,68,VALID,0.559375,
2010-02-20, 01:20:04,VALID,1003.97,VALID,0,VALID,87.8313,VALID,0,VALID,25.9427,VALID,35,VALID,0.655469,
2010-02-20, 01:21:04,VALID,1003.95,VALID,0,VALID,88.0449,VALID,0,VALID,25.9232,VALID,19,VALID,0.525391,
2010-02-20, 01:22:04,VALID,1003.93,VALID,0,VALID,87.9762,VALID,0,VALID,25.9038,VALID,20,VALID,0.442578,
2010-02-20, 01:23:04,VALID,1003.89,VALID,0,VALID,88.0831,VALID,0,VALID,25.9038,VALID,20,VALID,0.525,
2010-02-20, 01:24:04,VALID,1003.88,VALID,0,VALID,88.2127,VALID,0,VALID,25.9057,VALID,20,VALID,0.434375,
2010-02-20, 01:25:04,VALID,1003.91,VALID,0,VALID,88.2738,VALID,0,VALID,25.8648,VALID,20,VALID,0.396484,
2010-02-20, 01:26:04,VALID,1003.95,VALID,0,VALID,88.3424,VALID,0,VALID,25.8239,VALID,20,VALID,0.0746094,
2010-02-20, 01:27:04,VALID,1003.93,VALID,0,VALID,88.3577,VALID,0,VALID,25.8648,VALID,35,VALID,1.0082,
2010-02-20, 01:28:04,VALID,1003.96,VALID,0,VALID,88.0373,VALID,0,VALID,25.9232,VALID,43,VALID,0.735547,
2010-02-20, 01:29:04,VALID,1003.95,VALID,0,VALID,87.8313,VALID,0,VALID,26.0012,VALID,31,VALID,0.514844,
2010-02-20, 01:30:04,VALID,1003.94,VALID,0,VALID,87.6787,VALID,0,VALID,26.0206,VALID,41,VALID,0.430469,
2010-02-20, 01:31:04,VALID,1003.95,VALID,0,VALID,87.343,VALID,0,VALID,26.0401,VALID,344,VALID,1.33633,
2010-02-20, 01:32:04,VALID,1003.93,VALID,0,VALID,87.3354,VALID,0,VALID,26.0791,VALID,23,VALID,0.924609,
2010-02-20, 01:33:04,VALID,1003.88,VALID,0,VALID,87.0455,VALID,0,VALID,26.0985,VALID,33,VALID,0.591016,
2010-02-20, 01:34:04,VALID,1003.87,VALID,0,VALID,86.9311,VALID,0,VALID,26.157,VALID,28,VALID,1.27734,
2010-02-20, 01:35:04,VALID,1003.85,VALID,0,VALID,86.8014,VALID,0,VALID,26.1745,VALID,360,VALID,0.548437,
2010-02-20, 01:36:04,VALID,1003.84,VALID,0,VALID,86.8243,VALID,0,VALID,26.2154,VALID,26,VALID,0.336328,
2010-02-20, 01:37:04,VALID,1003.84,VALID,0,VALID,86.5573,VALID,0,VALID,26.2154,VALID,26,VALID,0.46875,
2010-02-20, 01:38:04,VALID,1003.78,VALID,0,VALID,86.5039,VALID,0,VALID,26.194,VALID,26,VALID,0.237109,
2010-02-20, 01:39:04,VALID,1003.8,VALID,0,VALID,86.7251,VALID,0,VALID,26.2154,VALID,26,VALID,0.571094,
2010-02-20, 01:40:04,VALID,1003.79,VALID,0,VALID,87.0303,VALID,0,VALID,26.194,VALID,26,VALID,0.177734,
2010-02-20, 01:41:04,VALID,1003.78,VALID,0,VALID,87.0226,VALID,0,VALID,26.157,VALID,26,VALID,0.3625,
2010-02-20, 01:42:04,VALID,1003.76,VALID,0,VALID,87.0455,VALID,0,VALID,26.157,VALID,49,VALID,0.668359,
2010-02-20, 01:43:04,VALID,1003.78,VALID,0,VALID,87.2057,VALID,0,VALID,26.1375,VALID,358,VALID,1.06758,
2010-02-20, 01:44:04,VALID,1003.81,VALID,0,VALID,87.343,VALID,0,VALID,26.118,VALID,350,VALID,0.225,
2010-02-20, 01:45:04,VALID,1003.77,VALID,0,VALID,87.4193,VALID,0,VALID,26.0771,VALID,329,VALID,0.355859,
2010-02-20, 01:46:04,VALID,1003.79,VALID,0,VALID,87.4193,VALID,0,VALID,26.0791,VALID,300,VALID,0.519531,
2010-02-20, 01:47:04,VALID,1003.78,VALID,0,VALID,87.2973,VALID,0,VALID,26.0791,VALID,1,VALID,0.392188,
2010-02-20, 01:48:04,VALID,1003.73,VALID,0,VALID,87.1294,VALID,0,VALID,26.12,VALID,336,VALID,0.597266,
2010-02-20, 01:49:04,VALID,1003.75,VALID,0,VALID,87.0837,VALID,0,VALID,26.1375,VALID,344,VALID,0.505859,
2010-02-20, 01:50:04,VALID,1003.75,VALID,0,VALID,87.076,VALID,0,VALID,26.1375,VALID,344,VALID,0.0875,
2010-02-20, 01:51:04,VALID,1003.75,VALID,0,VALID,87.3965,VALID,0,VALID,26.118,VALID,344,VALID,0.0992187,
2010-02-20, 01:52:04,VALID,1003.76,VALID,0,VALID,87.7932,VALID,0,VALID,26.0985,VALID,344,VALID,0.275,
2010-02-20, 01:53:04,VALID,1003.72,VALID,0,VALID,87.816,VALID,0,VALID,26.0421,VALID,285,VALID,0.938672,
2010-02-20, 01:54:04,VALID,1003.73,VALID,0,VALID,88.0754,VALID,0,VALID,25.9817,VALID,27,VALID,0.163672,
2010-02-20, 01:55:04,VALID,1003.7,VALID,0,VALID,88.4492,VALID,0,VALID,25.9622,VALID,27,VALID,0.025,
2010-02-20, 01:56:04,VALID,1003.69,VALID,0,VALID,88.4721,VALID,0,VALID,25.9038,VALID,27,VALID,0.237891,
2010-02-20, 01:57:04,VALID,1003.68,VALID,0,VALID,88.5789,VALID,0,VALID,25.9038,VALID,27,VALID,0.169531,
2010-02-20, 01:58:04,VALID,1003.69,VALID,0,VALID,88.6628,VALID,0,VALID,25.9038,VALID,27,VALID,0.159766,
2010-02-20, 01:59:04,VALID,1003.69,VALID,0,VALID,88.6552,VALID,0,VALID,25.8843,VALID,27,VALID,0,
2010-02-20, 02:00:04,VALID,1003.72,VALID,0,VALID,88.7468,VALID,0,VALID,25.8843,VALID,21,VALID,0.333203,
2010-02-20, 02:01:04,VALID,1003.7,VALID,0,VALID,88.6094,VALID,0,VALID,25.8843,VALID,9,VALID,0.0308594,
2010-02-20, 02:02:04,VALID,1003.7,VALID,0,VALID,88.907,VALID,0,VALID,25.8843,VALID,9,VALID,0.0152344,
2010-02-20, 02:03:04,VALID,1003.69,VALID,0,VALID,88.9756,VALID,0,VALID,25.8668,VALID,9,VALID,0.0257812,
2010-02-20, 02:04:04,VALID,1003.66,VALID,0,VALID,89.3037,VALID,0,VALID,25.8453,VALID,9,VALID,0.190625,
2010-02-20, 02:05:04,VALID,1003.67,VALID,0,VALID,89.3571,VALID,0,VALID,25.8259,VALID,9,VALID,0.260156,
2010-02-20, 02:06:04,VALID,1003.65,VALID,0,VALID,89.1511,VALID,0,VALID,25.8278,VALID,9,VALID,0.294141,
2010-02-20, 02:07:04,VALID,1003.64,VALID,0,VALID,89.1511,VALID,0,VALID,25.8259,VALID,2,VALID,0.429688,
2010-02-20, 02:08:04,VALID,1003.63,VALID,0,VALID,89.3113,VALID,0,VALID,25.8668,VALID,2,VALID,0.152734,
2010-02-20, 02:09:04,VALID,1003.6,VALID,0,VALID,89.4181,VALID,0,VALID,25.8473,VALID,265,VALID,0.608594,
2010-02-20, 02:10:04,VALID,1003.58,VALID,0,VALID,89.3113,VALID,0,VALID,25.8064,VALID,177,VALID,0.409375,
2010-02-20, 02:11:04,VALID,1003.59,VALID,0,VALID,89.4486,VALID,0,VALID,25.8064,VALID,177,VALID,0.353125,
2010-02-20, 02:12:04,VALID,1003.6,VALID,0,VALID,89.3952,VALID,0,VALID,25.7869,VALID,177,VALID,0.132813,
2010-02-20, 02:13:04,VALID,1003.6,VALID,0,VALID,89.3494,VALID,0,VALID,25.7674,VALID,177,VALID,0.201562,
2010-02-20, 02:14:04,VALID,1003.62,VALID,0,VALID,89.1282,VALID,0,VALID,25.7674,VALID,177,VALID,0.377734,
2010-02-20, 02:15:04,VALID,1003.62,VALID,0,VALID,88.9909,VALID,0,VALID,25.7694,VALID,177,VALID,0.202344,
2010-02-20, 02:16:04,VALID,1003.61,VALID,0,VALID,89.4257,VALID,0,VALID,25.7674,VALID,177,VALID,0.29375,
2010-02-20, 02:17:04,VALID,1003.6,VALID,0,VALID,89.6317,VALID,0,VALID,25.7694,VALID,177,VALID,0.497266,
2010-02-20, 02:18:04,VALID,1003.63,VALID,0,VALID,89.8072,VALID,0,VALID,25.748,VALID,177,VALID,0.578906,
2010-02-20, 02:19:04,VALID,1003.62,VALID,0,VALID,90.1123,VALID,0,VALID,25.709,VALID,177,VALID,0.446875,
2010-02-20, 02:20:04,VALID,1003.59,VALID,0,VALID,90.4556,VALID,0,VALID,25.709,VALID,177,VALID,0.0199219,
2010-02-20, 02:21:04,VALID,1003.6,VALID,0,VALID,90.6311,VALID,0,VALID,25.67,VALID,177,VALID,0,
2010-02-20, 02:22:04,VALID,1003.59,VALID,0,VALID,90.7608,VALID,0,VALID,25.67,VALID,177,VALID,0.234375,
2010-02-20, 02:23:04,VALID,1003.55,VALID,0,VALID,90.6769,VALID,0,VALID,25.6506,VALID,177,VALID,0,
2010-02-20, 02:24:04,VALID,1003.5,VALID,0,VALID,90.8142,VALID,0,VALID,25.672,VALID,177,VALID,0.0101562,
2010-02-20, 02:25:04,VALID,1003.54,VALID,0,VALID,91.0431,VALID,0,VALID,25.6506,VALID,177,VALID,0.1125,
2010-02-20, 02:26:04,VALID,1003.51,VALID,0,VALID,91.1041,VALID,0,VALID,25.67,VALID,177,VALID,0,
2010-02-20, 02:27:04,VALID,1003.51,VALID,0,VALID,91.0202,VALID,0,VALID,25.6506,VALID,177,VALID,0,
2010-02-20, 02:28:04,VALID,1003.5,VALID,0,VALID,90.9668,VALID,0,VALID,25.6311,VALID,177,VALID,0,
2010-02-20, 02:29:04,VALID,1003.54,VALID,0,VALID,90.8371,VALID,0,VALID,25.6311,VALID,177,VALID,0,
2010-02-20, 02:30:04,VALID,1003.55,VALID,0,VALID,91.2262,VALID,0,VALID,25.6311,VALID,177,VALID,0,
2010-02-20, 02:31:04,VALID,1003.54,VALID,0,VALID,91.4855,VALID,0,VALID,25.6506,VALID,177,VALID,0,
2010-02-20, 02:32:04,VALID,1003.57,VALID,0,VALID,91.5923,VALID,0,VALID,25.633,VALID,177,VALID,0,
2010-02-20, 02:33:04,VALID,1003.57,VALID,0,VALID,91.722,VALID,0,VALID,25.633,VALID,177,VALID,0,
2010-02-20, 02:34:04,VALID,1003.56,VALID,0,VALID,91.8365,VALID,0,VALID,25.5921,VALID,177,VALID,0,
2010-02-20, 02:35:04,VALID,1003.55,VALID,0,VALID,91.9128,VALID,0,VALID,25.5921,VALID,177,VALID,0,
2010-02-20, 02:36:04,VALID,1003.52,VALID,0,VALID,92.0348,VALID,0,VALID,25.5921,VALID,177,VALID,0,
2010-02-20, 02:37:04,VALID,1003.49,VALID,0,VALID,92.0119,VALID,0,VALID,25.5941,VALID,177,VALID,0,
2010-02-20, 02:38:04,VALID,1003.47,VALID,0,VALID,91.9967,VALID,0,VALID,25.5746,VALID,177,VALID,0,
2010-02-20, 02:39:04,VALID,1003.46,VALID,0,VALID,92.0119,VALID,0,VALID,25.5551,VALID,177,VALID,0,
2010-02-20, 02:40:04,VALID,1003.48,VALID,0,VALID,91.9509,VALID,0,VALID,25.5532,VALID,177,VALID,0,
2010-02-20, 02:41:04,VALID,1003.45,VALID,0,VALID,91.7831,VALID,0,VALID,25.5551,VALID,177,VALID,0,
2010-02-20, 02:42:04,VALID,1003.45,VALID,0,VALID,91.9128,VALID,0,VALID,25.5532,VALID,177,VALID,0,
2010-02-20, 02:43:04,VALID,1003.45,VALID,0,VALID,91.9662,VALID,0,VALID,25.5318,VALID,177,VALID,0,
2010-02-20, 02:44:04,VALID,1003.48,VALID,0,VALID,92.0348,VALID,0,VALID,25.5532,VALID,177,VALID,0,
2010-02-20, 02:45:04,VALID,1003.46,VALID,0,VALID,92.1111,VALID,0,VALID,25.4948,VALID,177,VALID,0.234375,
2010-02-20, 02:46:04,VALID,1003.5,VALID,0,VALID,92.2179,VALID,0,VALID,25.4558,VALID,177,VALID,0.325781,
2010-02-20, 02:47:04,VALID,1003.49,VALID,0,VALID,92.3247,VALID,0,VALID,25.4363,VALID,177,VALID,0.553516,
2010-02-20, 02:48:04,VALID,1003.52,VALID,0,VALID,92.4315,VALID,0,VALID,25.4169,VALID,177,VALID,0.125,
2010-02-20, 02:49:04,VALID,1003.48,VALID,0,VALID,92.5688,VALID,0,VALID,25.3974,VALID,177,VALID,0,
2010-02-20, 02:50:04,VALID,1003.45,VALID,0,VALID,92.6909,VALID,0,VALID,25.337,VALID,177,VALID,0.170703,
2010-02-20, 02:51:04,VALID,1003.44,VALID,0,VALID,92.7748,VALID,0,VALID,25.339,VALID,177,VALID,0.377344,
2010-02-20, 02:52:04,VALID,1003.44,VALID,0,VALID,92.8664,VALID,0,VALID,25.2981,VALID,177,VALID,0.360156,
2010-02-20, 02:53:04,VALID,1003.41,VALID,0,VALID,92.8969,VALID,0,VALID,25.3,VALID,177,VALID,0.569141,
2010-02-20, 02:54:04,VALID,1003.42,VALID,0,VALID,92.935,VALID,0,VALID,25.2806,VALID,177,VALID,0.624219,
2010-02-20, 02:55:04,VALID,1003.4,VALID,0,VALID,92.9808,VALID,0,VALID,25.2397,VALID,10,VALID,0.476953,
2010-02-20, 02:56:04,VALID,1003.39,VALID,0,VALID,93.0571,VALID,0,VALID,25.2221,VALID,10,VALID,0.422266,
2010-02-20, 02:57:04,VALID,1003.43,VALID,0,VALID,93.1639,VALID,0,VALID,25.2221,VALID,10,VALID,0.448047,
2010-02-20, 02:58:04,VALID,1003.42,VALID,0,VALID,93.2402,VALID,0,VALID,25.2027,VALID,10,VALID,0.339453,
2010-02-20, 02:59:04,VALID,1003.43,VALID,0,VALID,93.2783,VALID,0,VALID,25.1637,VALID,10,VALID,0.158984,
2010-02-20, 03:00:04,VALID,1003.43,VALID,0,VALID,93.3165,VALID,0,VALID,25.1851,VALID,10,VALID,0.03125,
2010-02-20, 03:01:04,VALID,1003.44,VALID,0,VALID,93.3775,VALID,0,VALID,25.1248,VALID,10,VALID,0.155469,
2010-02-20, 03:02:04,VALID,1003.44,VALID,0,VALID,93.4004,VALID,0,VALID,25.1248,VALID,10,VALID,0,
2010-02-20, 03:03:04,VALID,1003.43,VALID,0,VALID,93.4156,VALID,0,VALID,25.1034,VALID,10,VALID,0,
2010-02-20, 03:04:04,VALID,1003.45,VALID,0,VALID,93.4233,VALID,0,VALID,25.1053,VALID,10,VALID,0,
2010-02-20, 03:05:04,VALID,1003.45,VALID,0,VALID,93.4462,VALID,0,VALID,25.0858,VALID,10,VALID,0,
2010-02-20, 03:06:04,VALID,1003.46,VALID,0,VALID,93.4462,VALID,0,VALID,25.0644,VALID,10,VALID,0,
2010-02-20, 03:07:04,VALID,1003.46,VALID,0,VALID,93.5072,VALID,0,VALID,25.0858,VALID,10,VALID,0,
2010-02-20, 03:08:04,VALID,1003.45,VALID,0,VALID,93.5224,VALID,0,VALID,25.1072,VALID,10,VALID,0,
2010-02-20, 03:09:04,VALID,1003.46,VALID,0,VALID,93.5224,VALID,0,VALID,25.0858,VALID,10,VALID,0,
2010-02-20, 03:10:04,VALID,1003.49,VALID,0,VALID,93.5301,VALID,0,VALID,25.0858,VALID,10,VALID,0,
2010-02-20, 03:11:04,VALID,1003.48,VALID,0,VALID,93.5072,VALID,0,VALID,25.0858,VALID,10,VALID,0,
2010-02-20, 03:12:04,VALID,1003.47,VALID,0,VALID,93.5072,VALID,0,VALID,25.1053,VALID,10,VALID,0.321484,
2010-02-20, 03:13:04,VALID,1003.46,VALID,0,VALID,93.4843,VALID,0,VALID,25.0858,VALID,10,VALID,0.389062,
2010-02-20, 03:14:05,VALID,1003.48,VALID,0,VALID,93.408,VALID,0,VALID,25.0839,VALID,10,VALID,0.173438,
2010-02-20, 03:15:05,VALID,1003.49,VALID,0,VALID,93.347,VALID,0,VALID,25.0644,VALID,10,VALID,0.365625,
2010-02-20, 03:16:05,VALID,1003.5,VALID,0,VALID,93.3165,VALID,0,VALID,25.0644,VALID,10,VALID,0.51875,
2010-02-20, 03:17:05,VALID,1003.51,VALID,0,VALID,93.2402,VALID,0,VALID,25.0644,VALID,10,VALID,0.298047,
2010-02-20, 03:18:05,VALID,1003.49,VALID,0,VALID,93.1715,VALID,0,VALID,25.0663,VALID,10,VALID,0.346484,
2010-02-20, 03:19:05,VALID,1003.51,VALID,0,VALID,93.1334,VALID,0,VALID,25.045,VALID,10,VALID,0.474609,
2010-02-20, 03:20:05,VALID,1003.51,VALID,0,VALID,93.1257,VALID,0,VALID,25.0663,VALID,10,VALID,0.422266,
2010-02-20, 03:21:05,VALID,1003.52,VALID,0,VALID,93.1944,VALID,0,VALID,25.0663,VALID,10,VALID,0.401172,
2010-02-20, 03:22:05,VALID,1003.5,VALID,0,VALID,93.2097,VALID,0,VALID,25.045,VALID,10,VALID,0.455859,
2010-02-20, 03:23:05,VALID,1003.5,VALID,0,VALID,93.2707,VALID,0,VALID,25.0274,VALID,10,VALID,0.48125,
2010-02-20, 03:24:05,VALID,1003.49,VALID,0,VALID,93.3165,VALID,0,VALID,25.006,VALID,10,VALID,0.425781,
2010-02-20, 03:25:05,VALID,1003.48,VALID,0,VALID,93.3928,VALID,0,VALID,24.9885,VALID,10,VALID,0.223438,
2010-02-20, 03:26:05,VALID,1003.52,VALID,0,VALID,93.4614,VALID,0,VALID,24.9885,VALID,10,VALID,0.191406,
2010-02-20, 03:27:05,VALID,1003.47,VALID,0,VALID,93.5072,VALID,0,VALID,24.9495,VALID,10,VALID,0.196875,
2010-02-20, 03:28:05,VALID,1003.48,VALID,0,VALID,93.5453,VALID,0,VALID,24.9282,VALID,10,VALID,0.159766,
2010-02-20, 03:29:05,VALID,1003.46,VALID,0,VALID,93.614,VALID,0,VALID,24.93,VALID,10,VALID,0,
2010-02-20, 03:30:05,VALID,1003.47,VALID,0,VALID,93.6445,VALID,0,VALID,24.9106,VALID,10,VALID,0,
2010-02-20, 03:31:05,VALID,1003.47,VALID,0,VALID,93.675,VALID,0,VALID,24.9106,VALID,10,VALID,0,
2010-02-20, 03:32:05,VALID,1003.44,VALID,0,VALID,93.7208,VALID,0,VALID,24.9106,VALID,10,VALID,0,
2010-02-20, 03:33:05,VALID,1003.45,VALID,0,VALID,93.7284,VALID,0,VALID,24.8911,VALID,10,VALID,0,
2010-02-20, 03:34:05,VALID,1003.44,VALID,0,VALID,93.7132,VALID,0,VALID,24.8697,VALID,10,VALID,0,
2010-02-20, 03:35:05,VALID,1003.43,VALID,0,VALID,93.7132,VALID,0,VALID,24.8716,VALID,10,VALID,0,
2010-02-20, 03:36:05,VALID,1003.41,VALID,0,VALID,93.6674,VALID,0,VALID,24.8522,VALID,10,VALID,0.271094,
2010-02-20, 03:37:05,VALID,1003.42,VALID,0,VALID,93.6979,VALID,0,VALID,24.8327,VALID,10,VALID,0.240234,
2010-02-20, 03:38:05,VALID,1003.39,VALID,0,VALID,93.6979,VALID,0,VALID,24.8132,VALID,10,VALID,0.1875,
2010-02-20, 03:39:05,VALID,1003.39,VALID,0,VALID,93.7055,VALID,0,VALID,24.7937,VALID,10,VALID,0.303516,
2010-02-20, 03:40:05,VALID,1003.37,VALID,0,VALID,93.7361,VALID,0,VALID,24.7937,VALID,10,VALID,0.173438,
2010-02-20, 03:41:05,VALID,1003.37,VALID,0,VALID,93.7818,VALID,0,VALID,24.7548,VALID,10,VALID,0.242578,
2010-02-20, 03:42:05,VALID,1003.36,VALID,0,VALID,93.7666,VALID,0,VALID,24.7353,VALID,10,VALID,0.310156,
2010-02-20, 03:43:05,VALID,1003.35,VALID,0,VALID,93.8047,VALID,0,VALID,24.6945,VALID,10,VALID,0.195703,
2010-02-20, 03:44:05,VALID,1003.34,VALID,0,VALID,93.8352,VALID,0,VALID,24.7159,VALID,10,VALID,0,
2010-02-20, 03:45:05,VALID,1003.32,VALID,0,VALID,93.8886,VALID,0,VALID,24.6964,VALID,10,VALID,0.0488281,
2010-02-20, 03:46:05,VALID,1003.29,VALID,0,VALID,93.9039,VALID,0,VALID,24.6574,VALID,10,VALID,0.339844,
2010-02-20, 03:47:05,VALID,1003.28,VALID,0,VALID,93.942,VALID,0,VALID,24.6185,VALID,10,VALID,0.291016,
2010-02-20, 03:48:05,VALID,1003.26,VALID,0,VALID,93.9802,VALID,0,VALID,24.599,VALID,10,VALID,0.267969,
2010-02-20, 03:49:05,VALID,1003.27,VALID,0,VALID,94.0336,VALID,0,VALID,24.5796,VALID,10,VALID,0.142188,
2010-02-20, 03:50:05,VALID,1003.26,VALID,0,VALID,94.1022,VALID,0,VALID,24.599,VALID,10,VALID,0.202344,